RH
83 88 79 90 100 100 100 100 100 96 92 82 99 87 71 63 66 71 70 67 73 69 58 43 42 46 76 100 100 100 100 100 100 100 100 85 85 90 100 100 100 100 100
58 73 83 87 89 98 100 100 100 100 100 90 100 100 95 81 55 54 63 70 72 66 73 70 59 56 57 53 45 44 57 72 84 81 78 94 100 99 92 100 100 100 100
72 48 58 85 99 96 93 100 100 100 100 100 96 100 100 100 87 54 64 78 76 85 78 80 76 71 58 93 91 68 53 45 55 79 86 86 100 100 100 100 100 100 100
47 52 40 47 70 94 96 86 97 99 100 100 98 92 98 100 100 99 91 92 86 80 82 86 75 76 70 45 43 46 41 33 27 39 54 65 80 99 100 100 100 100 94
27 34 39 38 38 54 75 96 99 92 96 100 100 100 100 100 100 100 100 100 94 89 82 85 76 79 72 54 56 55 52 43 36 34 31 35 55 79 92 100 100 100 100
14 17 26 30 32 34 45 65 92 96 82 79 98 98 99 94 94 100 100 100 100 99 87 88 86 75 70 62 60 54 52 61 53 44 37 34 56 65 74 95 100 100 100
11 10 13 19 28 34 26 36 64 48 75 76 67 95 100 94 95 86 100 99 100 100 100 95 89 78 68 64 59 58 56 56 54 51 50 41 39 50 63 72 90 96 100
7 8 10 12 15 23 32 32 38 53 39 55 56 54 82 92 90 70 72 100 83 83 78 74 64 69 74 74 70 57 62 62 53 58 54 63 42 42 49 59 78 100 100
7 9 11 11 12 15 21 37 38 52 74 31 41 37 54 72 77 74 54 74 84 78 63 59 64 63 61 61 65 68 69 65 56 64 56 56 62 66 52 59 92 100 100
5 7 14 7 10 16 19 21 32 48 73 66 44 28 37 47 62 49 67 65 68 90 89 61 53 59 59 58 55 51 56 62 60 60 60 64 70 70 72 74 90 94 96
7 7 9 6 8 13 17 20 22 26 36 43 58 44 40 30 32 32 43 70 67 71 75 76 54 51 47 52 54 47 49 47 54 59 60 64 77 87 84 85 98 100 100
6 12 7 7 7 6 8 16 20 24 30 40 41 55 37 20 23 22 25 35 47 66 74 80 54 47 47 48 54 50 52 51 47 49 53 65 79 86 78 84 91 97 100
7 7 8 6 6 6 5 7 10 18 28 34 49 63 43 34 34 27 24 34 38 40 47 60 52 42 46 48 53 50 50 50 49 49 50 69 72 74 80 99 99 100 100
5 6 6 4 5 5 5 5 6 8 14 26 41 52 53 42 44 40 32 31 39 34 35 44 46 47 58 60 54 48 51 51 54 56 66 78 70 78 89 85 99 100 100
4 4 3 3 4 5 6 6 6 7 8 11 19 32 50 52 52 48 47 42 48 43 57 58 49 49 51 55 61 60 60 55 67 56 75 72 68 72 77 88 100 100 100
6 5 6 7 8 11 10 8 7 7 8 8 10 16 27 40 43 42 57 62 63 56 53 56 65 62 47 56 66 70 75 74 77 85 72 70 76 73 79 87 97 100 100
10 13 12 11 9 9 9 8 8 8 8 8 8 9 10 12 14 16 21 28 37 46 45 45 54 65 67 62 61 62 65 76 74 89 84 86 80 76 81 86 100 100 100
8 7 7 7 6 6 6 7 8 8 9 9 10 12 12 12 13 14 15 18 15 16 19 24 29 33 38 39 38 47 64 80 77 80 79 85 88 100 100 99 100 100 100
12 13 14 12 10 9 8 8 9 9 10 11 12 12 12 11 11 11 12 13 14 14 15 15 14 15 17 18 20 24 29 36 50 70 65 79 100 100 100 100 100 100 100
10 11 11 10 10 10 10 8 8 9 10 11 12 12 13 13 14 15 15 16 16 17 17 16 15 17 18 18 21 25 32 51 58 71 96 100 100 100 100 100 100 100 100
34 18 13 12 11 10 10 12 12 12 10 10 11 12 13 13 14 15 16 17 17 16 16 17 18 22 29 39 50 51 59 61 70 80 97 100 99 100 100 100 100 100 100
34 38 46 49 53 46 22 16 14 14 15 16 17 17 18 19 19 20 22 25 25 25 26 29 34 28 43 58 59 73 84 87 98 100 100 100 100 100 100 100 100 100 100
53 48 48 47 42 49 49 55 59 51 34 30 29 28 28 27 28 32 30 30 33 30 28 31 45 52 81 100 80 78 94 87 100 100 94 100 100 100 100 100 100 100 100
56 56 56 55 54 52 53 57 52 55 61 62 70 75 76 68 65 71 71 71 69 66 70 58 65 75 70 95 92 95 94 87 100 98 94 99 95 100 100 100 100 100 100
52 51 52 51 53 54 54 53 54 55 56 60 67 72 64 60 56 60 66 74 72 74 82 93 93 86 100 87 91 93 100 100 100 100 100 100 100 100 88 100 100 100 100
36 44 46 49 51 49 49 52 55 56 56 55 55 57 57 57 63 65 58 60 59 62 73 79 74 81 87 92 94 85 77 79 93 100 100 100 100 100 100 100 100 100 95
Wind_Speed
67 65 64 61 56 53 55 54 54 54 55 50 48 48 46 46 43 44 46 42 40 43 48 52 56 62 65 65 64 64 64 67 68 68 67 61 56 53 52 51 49 50 54
75 73 70 68 66 61 56 53 53 54 57 57 53 52 51 53 51 50 50 46 44 44 41 41 42 45 47 51 55 55 54 53 56 61 64 65 62 56 53 53 51 53 53
84 82 76 73 71 69 67 61 56 50 54 58 57 54 53 56 54 55 55 53 51 47 43 43 40 40 41 44 44 46 50 52 50 50 53 57 62 61 57 55 53 54 59
91 89 86 81 79 76 75 71 67 56 53 56 60 59 56 56 56 58 56 54 53 52 47 46 45 48 47 46 46 48 50 49 52 53 50 52 56 60 58 57 55 52 59
95 95 93 89 86 85 81 78 78 74 71 67 66 66 64 62 64 58 54 57 57 54 53 51 51 49 47 47 47 46 48 48 47 47 50 51 55 56 59 59 55 55 58
97 93 95 94 95 89 88 84 85 84 79 79 78 75 69 66 63 63 62 57 60 59 58 57 54 51 52 52 52 52 52 48 49 49 49 48 49 52 52 57 57 54 60
101 96 93 93 97 95 92 92 91 92 87 87 83 84 79 73 70 68 71 64 61 64 65 64 63 60 60 58 58 57 54 54 54 52 51 50 49 47 49 52 53 55 52
103 100 96 95 94 97 96 96 96 99 94 93 89 87 86 84 80 77 76 72 68 71 68 69 69 66 65 64 62 60 60 61 58 56 55 52 52 52 52 50 50 50 54
104 107 103 101 101 96 95 100 99 100 101 95 95 94 89 89 87 83 82 79 78 75 74 73 73 73 72 70 67 66 65 64 63 62 60 59 58 57 56 53 52 53 55
88 99 108 105 101 103 101 100 101 106 103 102 99 94 94 95 94 90 85 83 79 78 78 79 78 78 78 75 71 71 73 70 69 67 65 64 65 62 61 61 60 57 61
85 86 103 104 104 109 112 107 103 105 104 102 102 98 96 96 98 94 90 89 86 85 82 85 85 83 83 82 80 78 78 76 75 72 69 70 70 65 60 63 65 67 69
75 99 97 101 102 103 106 109 111 107 104 102 103 101 99 94 95 92 85 91 92 89 88 88 88 88 87 85 84 84 85 83 81 77 75 74 72 69 66 61 60 57 60
84 97 104 107 102 103 100 102 104 108 108 105 105 105 104 100 100 100 89 86 89 92 91 86 88 91 89 87 87 88 89 89 88 84 80 78 76 75 69 63 61 58 61
86 97 104 104 101 99 92 92 94 94 98 106 108 110 112 107 105 106 101 97 93 92 91 87 92 89 88 89 90 90 90 89 87 85 81 78 79 77 70 69 65 64 68
80 89 97 84 77 77 81 85 90 90 92 95 99 107 111 112 110 110 108 107 107 97 95 95 98 96 93 91 93 93 93 92 88 86 85 82 83 81 78 71 69 65 65
60 63 62 55 58 66 77 82 82 87 89 92 94 99 102 106 109 109 110 111 113 112 104 102 100 102 100 99 96 97 96 94 92 91 92 92 88 86 83 76 71 66 68
47 47 53 58 64 72 75 76 78 81 84 87 90 94 96 99 102 105 107 109 111 111 109 104 102 102 105 105 106 103 101 100 97 97 95 93 92 86 81 74 71 66 61
45 51 55 58 62 65 68 72 74 78 81 82 85 88 91 94 96 99 99 100 101 100 98 96 99 100 99 100 100 99 101 100 97 97 96 90 85 82 78 69 64 59 61
37 39 42 47 52 57 62 68 71 73 76 79 82 83 84 89 90 90 91 93 94 91 91 89 89 91 90 90 88 88 90 89 89 90 91 84 79 73 68 64 62 63 67
37 39 43 46 49 50 53 56 62 67 72 75 77 79 82 85 86 88 89 89 90 91 91 89 88 88 88 87 84 82 81 80 80 80 79 78 79 71 71 69 69 69 67
33 36 41 43 44 46 49 50 52 56 60 64 68 71 74 77 78 80 81 82 83 85 85 84 83 81 79 78 77 76 77 76 76 74 75 76 71 69 71 71 72 76 74
37 39 40 40 41 41 44 46 49 52 54 56 60 62 65 68 70 72 74 76 78 77 76 74 73 75 72 75 72 71 72 69 70 74 77 76 75 74 78 77 77 76 79
40 40 41 42 44 45 46 48 49 52 53 56 58 60 62 64 65 66 69 70 72 71 71 71 71 70 63 69 69 70 70 69 70 76 75 76 81 80 79 81 81 79 79
47 47 48 48 48 47 48 50 50 52 55 57 59 60 61 62 63 65 66 65 67 69 69 70 70 71 71 78 76 72 75 70 70 73 71 71 72 76 76 79 82 82 83
56 56 56 57 58 57 57 58 57 57 57 59 62 65 65 65 67 68 66 66 68 70 70 71 74 75 78 79 78 81 80 79 78 78 76 76 75 75 76 82 85 83 85
68 67 67 66 67 67 67 66 66 67 68 69 70 70 71 71 72 74 73 73 72 74 75 78 79 80 81 82 85 86 85 84 82 83 86 86 86 88 86 85 83 80 82
Wind_Direction
257 258 259 260 261 262 264 267 269 271 272 270 268 269 268 273 269 272 277 279 282 282 279 274 274 272 271 273 277 279 279 281 282 284 285 285 285 286 289 290 291 293 295
255 255 256 259 260 259 258 261 265 267 265 266 267 269 271 273 276 276 281 278 277 282 281 279 279 277 278 277 277 277 279 283 284 281 282 283 283 284 286 288 289 291 290
252 251 253 253 255 258 259 259 258 259 261 263 265 264 266 268 274 279 281 284 284 281 277 278 276 280 284 281 281 283 283 287 285 282 279 279 279 279 280 282 284 285 288
251 252 250 249 252 253 256 256 255 251 250 253 257 261 261 264 270 276 278 279 280 281 283 283 281 285 289 286 284 287 289 287 287 280 280 281 279 275 274 276 278 280 282
250 249 250 250 249 250 253 255 257 254 254 255 256 258 258 262 266 268 272 278 277 278 280 280 283 284 286 287 287 289 292 291 292 294 284 287 280 278 272 272 276 277 280
254 250 249 249 250 248 248 251 255 254 253 258 255 257 258 259 263 266 267 269 273 276 280 283 281 281 283 284 285 286 289 293 297 295 296 289 285 278 277 274 273 277 277
254 253 252 249 249 251 248 248 252 254 250 253 254 256 258 260 261 264 263 264 268 271 273 277 278 279 280 280 283 284 286 290 294 297 298 292 287 282 280 279 275 277 278
254 254 252 251 250 249 249 249 250 254 252 251 253 254 255 258 258 260 261 261 266 267 269 271 274 274 276 281 281 280 285 288 291 294 298 299 298 295 289 281 275 269 274
254 254 253 253 251 250 249 250 251 252 254 252 251 253 254 255 257 259 260 259 261 263 266 267 269 272 273 275 279 279 282 286 289 292 295 299 299 298 294 285 274 273 274
252 254 254 253 254 252 251 249 250 250 252 255 254 255 253 252 253 256 258 258 259 263 264 266 267 268 270 272 274 277 281 284 286 289 292 297 297 299 300 292 285 278 273
246 249 250 252 249 248 249 248 249 250 251 253 255 255 256 255 254 253 254 255 258 260 263 265 266 266 267 270 272 274 276 279 280 283 288 290 291 293 296 285 283 279 279
241 245 245 247 247 246 246 247 248 249 251 253 255 256 257 257 258 258 254 254 260 262 263 265 266 267 268 268 269 271 273 275 278 281 283 285 287 288 292 287 282 279 278
231 236 242 244 243 244 246 247 247 249 250 253 254 257 259 261 262 263 260 259 259 261 261 263 265 266 267 267 270 271 272 274 275 278 280 280 283 285 286 282 276 276 276
233 239 241 244 245 244 247 250 251 251 252 251 252 255 258 261 261 263 265 264 262 260 262 263 263 263 266 267 268 271 272 274 276 277 278 278 280 282 283 281 275 270 271
245 246 251 260 261 257 253 251 251 251 251 252 251 251 255 259 259 262 264 264 264 265 264 265 265 264 265 268 271 272 272 274 275 275 276 278 279 281 281 279 271 267 266
253 256 261 256 254 257 253 251 248 249 249 250 251 251 251 254 258 259 261 263 265 265 265 265 265 266 267 268 271 272 272 273 275 275 275 276 277 278 278 275 269 268 262
250 253 253 251 247 245 247 247 248 247 247 248 248 250 251 252 255 258 259 260 263 264 265 264 264 264 266 269 270 269 269 271 272 273 275 276 277 276 275 272 265 266 266
248 250 252 254 255 254 253 252 251 248 248 250 251 252 253 254 255 255 257 260 263 264 265 265 265 266 267 267 267 267 267 269 270 271 273 273 272 271 269 267 264 256 249
260 259 257 258 258 257 255 253 252 251 250 250 251 251 253 254 255 258 259 261 263 265 265 265 265 266 266 266 267 267 267 268 268 267 270 269 266 267 265 261 260 254 252
268 265 261 260 259 257 256 254 253 252 251 252 252 253 253 254 255 257 258 259 261 263 264 265 265 266 266 266 266 265 265 264 265 264 263 261 262 261 258 260 258 255 253
273 269 265 263 263 263 262 260 256 253 252 252 253 253 254 255 256 257 258 260 261 262 263 264 264 264 264 263 262 261 259 259 259 259 258 259 259 255 256 257 256 256 255
285 282 278 274 272 270 266 264 263 262 260 258 257 256 254 254 254 256 257 257 257 259 260 260 260 260 259 258 259 258 258 259 258 256 254 255 256 253 255 257 258 256 253
287 286 282 279 277 275 270 267 264 262 259 258 257 257 256 256 257 257 257 257 258 258 258 257 256 257 257 259 260 257 256 256 257 256 257 255 255 256 255 256 257 254 254
276 275 274 273 272 271 269 268 269 268 264 261 259 258 258 258 257 257 258 258 258 258 258 256 255 255 252 251 255 257 260 258 255 259 260 255 256 254 254 255 257 258 257
272 270 269 268 267 266 266 266 265 265 263 262 260 259 259 259 260 259 258 258 258 257 256 255 254 252 252 254 254 255 254 257 257 256 254 251 257 258 254 255 255 256 259
275 271 268 265 264 264 264 263 263 262 262 262 261 260 259 259 260 261 260 259 257 257 257 258 259 257 256 256 258 258 257 256 254 255 256 258 256 259 255 256 258 259 260